Location: Berua Church
(35.0423°N, 88.5987°W)
Time: 00:12:41
(UTC+00:00)

ATLAS 3B R/B - Pass Details

Date: 08 December 2019
Orbit: 1027 x 1168 km, 63.8° (Epoch: 19 January)

Event Time Altitude Azimuth Distance (km) Brightness Sun altitude
Rises 22:58:13 0° 329° (NNW) 3,806 5.7 -3.7°
Reaches altitude 10° 23:00:49 10° 330° (NNW) 2,863 5.0 -4.2°
Maximum altitude 23:07:36 89° 56° (NE) 1,075 2.8 -5.5°
Drops below altitude 10° 23:14:35 10° 151° (SSE) 2,944 5.0 -6.8°
Sets 23:17:17 0° 151° (SSE) 3,919 5.6 -7.3°
